Retour au catalogue

FENGYUN 1C DEB

ActifPO
NORAD 31495·DEBRIS·🇨🇳 China

Lancé May 10, 1999 depuis Taiyuan Satellite Launch Center

Loading…

Prochains Passages (prochaines 24 heures)

TLE

VieillissantSource: Space-Track

Époque: Sep 9, 2026, 23:02 UTC

1 31495U 99025BWJ 26252.95996031  .00001611  00000-0  63246-3 0  9999
2 31495  99.0967 143.6831 0026522 109.5390 250.8659 14.30645090672679

Suivez FENGYUN 1C DEB en temps réel avec AllMySat

Download on the App Store